Valparaiso, IN

12:46 AM CDT on May 25, 2017 (GMT -0500)
Porter County Municipal

Weather History for KVPZ - July, 2013

Change the Weather History Date:

Tuesday, July 9, 2013

  Actual Average Record
Temperature  
Mean Temperature 79 °F 73 °F  
Max Temperature 84 °F 83 °F 94 °F (2007)
Min Temperature 73 °F 63 °F 54 °F (2004)
Degree Days  
Heating Degree Days 0 0  
Month to date heating degree days 2 0  
Since 1 June heating degree days 39 41  
Since 1 July heating degree days 2 0  
Cooling Degree Days 14 8  
Month to date cooling degree days 57 72  
Year to date cooling degree days 325 283  
Since 1 June cooling degree days 224 236  
Growing Degree Days 28 (Base 50)    
Moisture  
Dew Point 73 °F    
Average Humidity 86    
Maximum Humidity 94    
Minimum Humidity 72    
Precipitation  
Precipitation 0.01 in 0.16 in 1.03 in (2015)
Month to date precipitation 0.42 1.12  
Year to date precipitation 20.97 18.01  
Sea Level Pressure  
Sea Level Pressure 29.97 in    
Wind  
Wind Speed 7 mph (SW)    
Max Wind Speed 22 mph    
Max Gust Speed 26 mph    
Visibility 7 miles    
Events      
T = Trace of Precipitation, MM = Missing Value Source: NWS Daily Summary

Daily Weather History Graph

Daily Weather History Graph

Search for Another Location

Airport or City:

Trip Planner

Search our weather history database for the weather conditions in past years. The results will help you decide how hot, cold, wet, or windy it might be!

Date:

Astronomy

Jul. 09, 2013 Rise Set
Actual Time 5:23 AM CDT 8:23 PM CDT
Civil Twilight 4:49 AM CDT 8:56 PM CDT
Nautical Twilight 4:07 AM CDT 9:38 PM CDT
Astronomical Twilight 3:17 AM CDT 10:28 PM CDT
Moon 6:48 AM CDT (7/9) 8:58 PM CDT (7/9)
Length of Visible Light 16h 06m
Length of Day
15h 00m
New Moon, 2% of the Moon is Illuminated
Jul 9
New Moon
Jul 15
First Quarter
Jul 22
Full
Jul 29
Last Quarter
Aug 6
New

Hourly Weather History & Observations

Time (CDT) Temp. Heat Index Dew Point Humidity Pressure Visibility Wind Dir Wind Speed Gust Speed Precip Events Conditions
12:53 AM 73.9 °F - 71.1 °F 91% 30.01 in 9.0 mi Calm Calm - N/A   Clear
1:53 AM 73.9 °F - 72.0 °F 93% 30.00 in 7.0 mi SW 5.8 mph - N/A   Clear
2:53 AM 73.9 °F - 71.1 °F 91% 30.00 in 7.0 mi WSW 3.5 mph - N/A   Clear
3:53 AM 73.9 °F - 72.0 °F 93% 30.00 in 6.0 mi SW 5.8 mph - N/A   Clear
4:53 AM 73.9 °F - 72.0 °F 93% 29.99 in 4.0 mi SW 3.5 mph - N/A   Clear
5:17 AM 73.4 °F - 71.6 °F 94% 30.01 in 2.0 mi SW 4.6 mph - N/A   Clear
5:25 AM 73.4 °F - 71.6 °F 94% 30.01 in 1.8 mi SW 4.6 mph - N/A   Clear
5:53 AM 73.9 °F - 72.0 °F 93% 29.99 in 1.8 mi SW 5.8 mph - N/A   Clear
6:15 AM 73.4 °F - 71.6 °F 94% 30.01 in 2.0 mi SW 4.6 mph - N/A   Clear
6:53 AM 75.9 °F - 73.0 °F 91% 29.99 in 3.0 mi SW 5.8 mph - N/A   Partly Cloudy
7:53 AM 79.0 °F - 73.9 °F 84% 30.00 in 7.0 mi SW 5.8 mph - N/A   Clear
8:53 AM 81.0 °F 86.7 °F 75.0 °F 82% 30.00 in 9.0 mi SW 5.8 mph - N/A   Mostly Cloudy
9:53 AM 82.0 °F 88.6 °F 75.0 °F 79% 29.99 in 10.0 mi SSW 9.2 mph - N/A   Scattered Clouds
10:53 AM 82.0 °F 87.9 °F 73.9 °F 76% 29.99 in 10.0 mi SW 9.2 mph - N/A   Clear
11:53 AM 82.0 °F 87.9 °F 73.9 °F 76% 29.99 in 10.0 mi SSW 10.4 mph - N/A   Mostly Cloudy
12:53 PM 79.0 °F - 73.9 °F 84% 29.99 in 10.0 mi West 20.7 mph 25.3 mph N/A   Overcast
1:53 PM 79.0 °F - 73.9 °F 84% 29.98 in 10.0 mi West 5.8 mph - 0.01 in   Partly Cloudy
2:53 PM 80.1 °F 84.5 °F 73.9 °F 81% 29.96 in 10.0 mi SW 8.1 mph - N/A   Clear
3:53 PM 82.9 °F 88.8 °F 73.0 °F 72% 29.94 in 10.0 mi SSW 8.1 mph - N/A   Clear
4:53 PM 82.0 °F 87.9 °F 73.9 °F 76% 29.93 in 10.0 mi SW 5.8 mph - N/A   Scattered Clouds
5:53 PM 82.0 °F 87.9 °F 73.9 °F 76% 29.91 in 10.0 mi SSW 6.9 mph - N/A   Partly Cloudy
6:53 PM 82.9 °F 90.2 °F 75.0 °F 77% 29.90 in 10.0 mi SSW 6.9 mph - N/A   Mostly Cloudy
7:53 PM 81.0 °F 87.3 °F 75.9 °F 85% 29.89 in 10.0 mi SSW 5.8 mph - N/A   Clear
8:53 PM 80.1 °F 85.1 °F 75.0 °F 85% 29.89 in 10.0 mi SSW 5.8 mph - N/A   Clear
9:53 PM 79.0 °F - 75.0 °F 88% 29.90 in 9.0 mi SSW 5.8 mph - N/A   Clear
10:53 PM 79.0 °F - 75.0 °F 88% 29.90 in 7.0 mi SW 6.9 mph - N/A   Clear
11:53 PM 77.0 °F - 73.9 °F 90% 29.91 in 5.0 mi SW 6.9 mph - N/A   Clear